Home > Weather > Des Moines > Past weeks

Flag for USA Past Weather in Des Moines, Iowa, USA — Yesterday and Last 2 Weeks

Now
68 °F

Passing clouds.


Feels Like: 68 °F
Forecast: 62 / 75 °F
Wind: 8 mph from Southeast

Location: Des Moines International Airport

Current Time: Jun 29, 2016 at 2:28:28 AM

Latest Report: Jun 29, 2016 at 1:54 AM


Visibility: 10 mi

Pressure: 30.13 "Hg

Humidity: 68%

Dew Point: 57 °F

Location of Des MoinesLocation

Past Weather in Des Moines — Graph

°F

Des Moines Temperature Yesterday

Maximum temperature yesterday: 83 °F (at 3:54 PM)
Minimum temperature yesterday: 66 °F (at 4:54 AM)
Average temperature yesterday: 75 °F

High & Low Weather Summary for the Past Weeks

 TemperatureHumidityPressure
High96 °F (Jun 15, 3:54 PM)94% (Jun 26, 3:54 AM)30.20 "Hg (Jun 26, 3:54 AM)
Low63 °F (Jun 24, 4:54 AM)32% (Jun 15, 4:54 PM)29.61 "Hg (Jun 14, 5:54 PM)
Average80 °F62%29.96 "Hg
* Reported Jun 14 12:54 AM — Jun 29 12:54 AM, Des Moines, Weather by CustomWeather, © 2016

Note: Actual official high and low records may vary slightly from our data, if they occured in-between our weather recording intervals... More about our weather records

Advertising

Des Moines Weather History for the Previous 24 Hours

Scroll right to see more
 ConditionsComfort  
Time TempWeatherWind HumidityBarometerVisibility
12:54 AM
Wed, Jun 29
69 °FPassing clouds.7 mph68%30.13 "Hg10 mi
11:54 PM
Tue, Jun 28
70 °FPassing clouds.6 mph66%30.13 "Hg10 mi
10:54 PM71 °FClear.8 mph63%30.12 "Hg10 mi
9:54 PM73 °FPassing clouds.8 mph62%30.09 "Hg10 mi
8:54 PM75 °FPassing clouds.8 mph60%30.07 "Hg10 mi
7:54 PM79 °FPassing clouds.8 mph48%30.07 "Hg10 mi
6:54 PM81 °FPassing clouds.9 mph44%30.09 "Hg10 mi
5:54 PM82 °FPassing clouds.9 mph43%30.11 "Hg10 mi
4:54 PM83 °FScattered clouds.12 mph43%30.13 "Hg10 mi
3:54 PM83 °FPassing clouds.9 mph41%30.14 "Hg10 mi
2:54 PM82 °FPassing clouds.8 mph44%30.16 "Hg10 mi
1:54 PM80 °FPassing clouds.10 mph47%30.19 "Hg10 mi
12:54 PM80 °FPassing clouds.7 mph47%30.19 "Hg10 mi
11:54 AM79 °FPassing clouds.8 mph48%30.19 "Hg10 mi
10:54 AM78 °FPassing clouds.8 mph50%30.19 "Hg10 mi
9:54 AM75 °FPassing clouds.3 mph55%30.20 "Hg10 mi
8:54 AM74 °FPassing clouds.5 mph60%30.20 "Hg10 mi
7:54 AM71 °FPassing clouds.5 mph68%30.20 "Hg10 mi
6:54 AM67 °FPassing clouds.3 mph79%30.19 "Hg10 mi
5:54 AM66 °FPassing clouds.6 mph78%30.17 "Hg10 mi
4:54 AM66 °FPassing clouds.6 mph78%30.16 "Hg10 mi
3:54 AM68 °FClear.5 mph70%30.15 "Hg10 mi
2:54 AM70 °FPassing clouds.7 mph66%30.14 "Hg10 mi
Weather by CustomWeather, © 2016

See weather overviewHow to use our weather pages